TimeEDT,TemperatureF,Dew PointF,Humidity,Sea Level PressureIn,VisibilityMPH,Wind Direction,Wind SpeedMPH,Gust SpeedMPH,PrecipitationIn,Events,Conditions,WindDirDegrees,DateUTC
12:54 AM,52.0,43.0,71,29.88,10.0,WSW,8.1,-,N/A,,Mostly Cloudy,240,2011-11-04 04:54:00
1:54 AM,52.0,42.1,69,29.87,10.0,West,10.4,-,N/A,,Overcast,280,2011-11-04 05:54:00
2:54 AM,51.1,41.0,68,29.88,10.0,NW,6.9,-,N/A,,Overcast,310,2011-11-04 06:54:00
3:54 AM,51.1,39.9,66,29.89,10.0,NNW,8.1,-,N/A,,Mostly Cloudy,330,2011-11-04 07:54:00
4:54 AM,50.0,39.9,68,29.90,10.0,NNW,11.5,-,N/A,,Overcast,330,2011-11-04 08:54:00
5:54 AM,50.0,36.0,59,29.92,10.0,NNW,13.8,21.9,N/A,,Overcast,340,2011-11-04 09:54:00
6:54 AM,48.9,34.0,56,29.94,10.0,NNW,15.0,21.9,N/A,,Overcast,340,2011-11-04 10:54:00
7:54 AM,46.9,28.9,50,29.97,10.0,NNW,16.1,25.3,N/A,,Overcast,330,2011-11-04 11:54:00
8:54 AM,46.9,27.0,46,30.00,10.0,NNW,17.3,25.3,N/A,,Overcast,330,2011-11-04 12:54:00
9:54 AM,46.9,27.0,46,30.02,10.0,NNW,15.0,24.2,N/A,,Overcast,340,2011-11-04 13:54:00
10:54 AM,46.9,26.1,44,30.01,10.0,NNW,18.4,24.2,N/A,,Mostly Cloudy,340,2011-11-04 14:54:00
11:54 AM,50.0,27.0,41,30.00,10.0,NNW,15.0,20.7,N/A,,Mostly Cloudy,330,2011-11-04 15:54:00
12:54 PM,51.1,25.0,36,30.00,10.0,NNW,13.8,25.3,N/A,,Scattered Clouds,340,2011-11-04 16:54:00
1:54 PM,52.0,23.0,32,30.01,10.0,NNW,17.3,24.2,N/A,,Scattered Clouds,330,2011-11-04 17:54:00
2:54 PM,53.1,21.9,30,30.01,10.0,NW,21.9,26.5,N/A,,Scattered Clouds,320,2011-11-04 18:54:00
3:54 PM,52.0,21.0,30,30.04,10.0,NNW,20.7,31.1,N/A,,Scattered Clouds,340,2011-11-04 19:54:00
4:54 PM,51.1,21.0,31,30.06,10.0,NNW,16.1,26.5,N/A,,Scattered Clouds,340,2011-11-04 20:54:00
5:54 PM,48.0,21.0,34,30.11,10.0,NNW,17.3,31.1,N/A,,Scattered Clouds,340,2011-11-04 21:54:00
6:54 PM,46.0,21.9,39,30.15,10.0,NNW,15.0,-,N/A,,Scattered Clouds,340,2011-11-04 22:54:00
7:54 PM,44.1,21.9,42,30.17,10.0,NNW,13.8,18.4,N/A,,Scattered Clouds,340,2011-11-04 23:54:00
8:54 PM,43.0,23.0,45,30.20,10.0,NNW,9.2,-,N/A,,Scattered Clouds,340,2011-11-05 00:54:00
9:54 PM,42.1,23.0,47,30.23,10.0,North,11.5,-,N/A,,Partly Cloudy,350,2011-11-05 01:54:00
10:54 PM,41.0,23.0,49,30.25,10.0,NNW,8.1,-,N/A,,Clear,330,2011-11-05 02:54:00
11:54 PM,39.9,23.0,51,30.24,10.0,NNW,9.2,-,N/A,,Clear,340,2011-11-05 03:54:00